Miscellaneous Local Product
Issued by NWS North Platte, NE

Home | Current Version | Previous Version | Text Only | Print | Product List | Glossary On
Versions: 1 2 3 4 5 6 7 8 9 10 11 12 13 14 15 16 17 18 19 20 21 22 23 24 25 26 27 28 29 30 31 32 33 34 35 36 37 38 39 40 41 42 43 44 45 46 47 48 49 50
000
AXUS43 KLBF 272310
MISLBF


WESTERN AND NORTH CENTRAL NEBRASKA HOURLY WEATHER ROUNDUP
NATIONAL WEATHER SERVICE NORTH PLATTE NE
600 PM CDT SAT MAY 27 2017

NOTE: "FAIR" INDICATES FEW OR NO CLOUDS BELOW 12,000 FEET WITH NO
SIGNIFICANT WEATHER AND/OR OBSTRUCTIONS TO VISIBILITY.

NOTE: STATIONS NOT REPORTING VARIABLES SUCH AS SKY/WEATHER OR
PRESSURE ARE PROVIDED BY RAWS AND APRS NETWORKS AND ARE NOT UNDER
NATIONAL WEATHER SERVICE QUALITY CONTROL.

...OBSERVATIONS IN AND NEAR THE EASTERN PANHANDLE OF NEBRASKA...

CITY           SKY/WX    TMP DP  RH WIND       PRES   REMARKS
PINE RIDGE     SUNNY     67  41  38 W12       30.03F
GORDON         FAIR      66  41  40 W13       30.04R
CHADRON        SUNNY     61  44  53 SE8       30.05F
ALLIANCE       SUNNY     62  42  47 W9        30.08S
SIDNEY         CLOUDY    58  45  62 N18G24    30.12R
CRESCENT LAKE    N/A     61  43  51 N7G24       N/A
$$

...OBSERVATIONS IN NORTHERN NEBRASKA AND FAR SOUTHERN SOUTH DAKOTA...

CITY           SKY/WX    TMP DP  RH WIND       PRES   REMARKS
WINNER         FAIR      72  48  42 W13       29.93F
VALENTINE      SUNNY     67  42  40 SW5       29.98S
THEDFORD       PTSUNNY   65  46  49 N6        30.03R
AINSWORTH      CLOUDY    65  47  53 NW5       29.99R
O`NEILL        LGT RAIN  59  52  77 NW7       29.97F
ORD            PTSUNNY   63  49  60 NW13      29.96F
BROKEN BOW     CLOUDY    63  51  65 N14       30.00R
VALENTINE NWR    N/A     67  45  44 NW5         N/A
HALSEY           N/A     64  50  60 NW6         N/A
BUTTE            N/A     64  52  65 SW9         N/A
CHAMBERS         N/A     62  55  78 CALM        N/A
EWING            N/A     63  54  72 NW7         N/A
$$

...OBSERVATIONS IN SOUTHWEST NEBRASKA AND FAR NORTHEAST COLORADO...

CITY           SKY/WX    TMP DP  RH WIND       PRES   REMARKS
WRAY           FAIR      61  48  63 W5        30.09S
IMPERIAL       PTSUNNY   62  50  64 N5        30.06R
OGALLALA       CLOUDY    65  49  56 N3        30.05R
NORTH PLATTE   CLOUDY    61  52  72 N7        30.03R
MCCOOK         CLOUDY    68  49  50 N10       30.00R
LEXINGTON      CLOUDY    65  53  65 N12       30.00R
STAPLETON        N/A     60  52  74 CALM        N/A
GOTHENBURG       N/A     65  48  53 N6          N/A
CALLAWAY         N/A     61  53  74 N9          N/A
$$

...OBSERVATIONS IN CENTRAL LINCOLN COUNTY AREA...

CITY           SKY/WX    TMP DP  RH WIND       PRES   REMARKS
N.P. AIRPORT   CLOUDY    61  52  72 N7        30.03R
N.P. DOWNTOWN    N/A     61  51  70 N3          N/A
N.P. SOUTHEAST   N/A     61  51  70 N3          N/A
N.P. HILLCREST   N/A     60  51  73 N6          N/A
$$

...SOME OBSERVATIONS FROM AROUND THE REGION...

CITY           SKY/WX    TMP DP  RH WIND       PRES   REMARKS
DENVER         LGT RAIN  54  42  64 N12       30.19R
LIMON          CLOUDY    52  46  80 N14       30.16F
ASPEN          CLOUDY    48  38  68 SE13      30.23R
LARAMIE        MOSUNNY   53  26  35 N14G28    30.21R
CASPER         CLOUDY    60  35  39 N7        30.18S
CHEYENNE       SUNNY     57  31  37 N16G23    30.18R
SCOTTSBLUFF    CLOUDY    65  41  41 W9        30.10R
GRAND ISLAND   CLOUDY    70  54  56 N20G25    29.95R
OMAHA          MOSUNNY   71  55  56 NE8       29.89S
SIOUX FALLS    CLOUDY    67  50  54 SW3       29.90F
PIERRE         PTSUNNY   73  37  27 NW23G29   29.87S
RAPID CITY     SUNNY     71  34  25 NW20      29.99S
BISMARCK       PTSUNNY   75  36  24 NW20G26   29.79S
KANSAS CITY    CLOUDY    72  62  71 N10       29.82F
HILL CITY      CLOUDY    70  56  61 N17G23    29.97R
WICHITA        PTSUNNY   79  61  53 N15       29.81R
DODGE CITY     CLOUDY    74  56  53 N15G21    29.93R
OKLAHOMA CITY  PTSUNNY   93  72  50 S10       29.73S HX 101
DALLAS         PTSUNNY   91  75  59 S23G30    29.75F HX 101
AMARILLO       SUNNY     84  49  29 N12       29.91F
$$




USA.gov is the U.S. government's official web portal to all federal, state and local government web resources and services.